New York Downtown Manhattan/w, NY

6:42 PM EDT on July 23, 2019 (GMT -0400)
New York Downtown Manhattan/w

Weather History for KJRB - May, 2019

Change the Weather History Date:

Wednesday, May 22, 2019

  Actual Average (KEWR) Record (KEWR)
Temperature  
Mean Temperature 66 °F -  
Max Temperature 77 °F 75 °F 98 °F (1992)
Min Temperature 57 °F 56 °F 44 °F (1957)
Cooling Degree Days 1    
Growing Degree Days 16 (Base 50)    
Moisture  
Dew Point 41 °F    
Average Humidity 41    
Maximum Humidity 54    
Minimum Humidity 25    
Precipitation  
Precipitation 0.02 in - - ()
Sea Level Pressure  
Sea Level Pressure 30.21 in    
Wind  
Wind Speed 5 mph ()    
Max Wind Speed 9 mph    
Max Gust Speed 37 mph    
Visibility 10.0 miles    
Events      
Averages and records for this station are not official NWS values.
T = Trace of Precipitation, MM = Missing Value Source: Averaged Metar Reports

Daily Weather History Graph

Daily Weather History Graph

Search for Another Location

Airport or City:

Astronomy

May. 22, 2019 Rise Set
Actual Time 5:33 AM EDT 8:12 PM EDT
Civil Twilight 5:01 AM EDT 8:44 PM EDT
Nautical Twilight 4:21 AM EDT 9:24 PM EDT
Astronomical Twilight 3:37 AM EDT 10:09 PM EDT
Moon 11:54 PM EDT (5/22) 8:38 AM EDT (5/22)
Length of Visible Light 15h 42m
Length of Day
14h 39m
Waning Gibbous, 85% of the Moon is Illuminated
May 22
Waning Gibbous
May 26
Last Quarter
Jun 3
New
Jun 10
First Quarter
Jun 17
Full

Hourly Weather History & Observations

Time (EDT) Temp. Dew Point Humidity Pressure Visibility Wind Dir Wind Speed Gust Speed Precip Events Conditions
12:56 AM 61.0 °F 41.0 °F 48% 30.12 in 10.0 mi Variable 4.6 mph - N/A   Clear
1:56 AM 60.1 °F 41.0 °F 49% 30.14 in 10.0 mi South 4.6 mph - N/A   Clear
2:56 AM 59.0 °F 39.0 °F 48% 30.14 in 10.0 mi East 3.5 mph - N/A   Clear
3:56 AM 57.9 °F 39.0 °F 49% 30.15 in 10.0 mi West 5.8 mph - N/A   Clear
4:56 AM 57.0 °F 37.9 °F 49% 30.17 in 10.0 mi WSW 5.8 mph - N/A   Clear
5:56 AM 57.0 °F 39.0 °F 51% 30.19 in 10.0 mi Variable 4.6 mph - 0.02 in   Clear
6:56 AM 57.9 °F 39.0 °F 49% 30.20 in 10.0 mi WSW 9.2 mph - N/A   Clear
7:56 AM 59.0 °F 39.0 °F 48% 30.23 in 10.0 mi West 6.9 mph - N/A   Clear
8:56 AM 61.0 °F 39.9 °F 46% 30.25 in 10.0 mi WSW 5.8 mph - N/A   Clear
9:56 AM 66.9 °F 39.0 °F 36% 30.24 in 10.0 mi South 4.6 mph - N/A   Clear
10:56 AM 69.1 °F 43.0 °F 39% 30.25 in 10.0 mi Variable 4.6 mph - N/A   Clear
11:56 AM 71.1 °F 39.0 °F 31% 30.25 in 10.0 mi WSW 8.1 mph - N/A   Clear
12:56 PM 73.0 °F 37.9 °F 28% 30.23 in 10.0 mi West 8.1 mph - N/A   Clear
1:56 PM 73.9 °F 37.9 °F 27% 30.22 in 10.0 mi SW 5.8 mph - N/A   Clear
3:56 PM 75.9 °F 37.9 °F 25% 30.22 in 10.0 mi SW 6.9 mph - N/A   Clear
4:56 PM 75.9 °F 42.1 °F 30% 30.22 in 10.0 mi WSW 6.9 mph - N/A   Clear
5:56 PM 75.0 °F 42.1 °F 31% 30.22 in 10.0 mi SW 8.1 mph - N/A   Clear
6:56 PM 72.0 °F 42.1 °F 34% 30.21 in 10.0 mi West 5.8 mph - N/A   Clear
7:56 PM 70.0 °F 43.0 °F 38% 30.21 in 10.0 mi Variable 3.5 mph 36.8 mph N/A   Clear
8:56 PM 66.9 °F 45.0 °F 45% 30.22 in 10.0 mi WSW 5.8 mph - N/A   Clear
9:56 PM 66.0 °F 46.0 °F 48% 30.24 in 10.0 mi WSW 4.6 mph - N/A   Clear
10:56 PM 64.9 °F 48.0 °F 54% 30.24 in 10.0 mi West 5.8 mph - N/A   Clear
11:56 PM 64.9 °F 46.0 °F 50% 30.24 in 10.0 mi West 5.8 mph - N/A   Scattered Clouds